FW8293 Weather Reports


Display with metric or nautical units.
time (UTC)temp
F
wind
direction
speed
MPH
gust
MPH
rain 1hr
in
rain 24hr
in
rain mn
in
humidity
%
barometer
mb
20260508204534 67 84 4.0 10.0 0.00 0.00 0.00 57 1013.9
20260508203032 67 156 8.0 13.0 0.00 0.00 0.00 56 1014.0
20260508201535 68 148 5.0 12.0 0.00 0.00 0.00 55 1014.0
20260508200030 68 81 4.0 11.0 0.00 0.00 0.00 55 1014.5
20260508194530 67 146 4.0 11.0 0.00 0.00 0.00 56 1014.5
20260508193036 67 186 3.0 12.0 0.00 0.00 0.00 56 1014.9
20260508191537 68 178 4.0 12.0 0.00 0.00 0.00 54 1015.0
20260508190034 68 203 6.0 13.0 0.00 0.00 0.00 53 1015.3
20260508184532 68 130 4.0 11.0 0.00 0.00 0.00 51 1015.5
20260508183033 68 270 2.0 12.0 0.00 0.00 0.00 55 1015.6
20260508181533 66 70 7.0 16.0 0.00 0.00 0.00 56 1015.8
20260508180030 65 114 8.0 20.0 0.00 0.00 0.00 56 1016.0
20260508174536 67 239 5.0 12.0 0.00 0.00 0.00 52 1016.3
20260508173032 67 248 5.0 13.0 0.00 0.00 0.00 52 1016.3
20260508171535 66 231 5.0 9.0 0.00 0.00 0.00 54 1016.7
20260508170030 65 226 5.0 14.0 0.00 0.00 0.00 55 1017.0
20260508164532 66 167 5.0 12.0 0.00 0.00 0.00 54 1017.1
20260508163035 65 160 4.0 12.0 0.00 0.00 0.00 55 1017.4
20260508161534 65 77 3.0 7.0 0.00 0.00 0.00 56 1017.7
20260508160028 64 149 4.0 8.0 0.00 0.00 0.00 58 1018.0
20260508154530 62 307 2.0 7.0 0.00 0.00 0.00 60 1018.1
20260508153036 63 307 1.0 9.0 0.00 0.00 0.00 59 1018.1
20260508151532 62 48 3.0 11.0 0.00 0.00 0.00 60 1018.1
20260508150030 62 187 3.0 7.0 0.00 0.00 0.00 61 1018.1
20260508144529 62 225 3.0 7.0 0.00 0.00 0.00 61 1018.2
20260508143029 61 274 1.0 6.0 0.00 0.00 0.00 62 1018.3
20260508141530 61 71 2.0 4.0 0.00 0.00 0.00 64 1018.4
20260508140030 61 0 0.0 0.0 0.00 0.00 0.00 65 1018.5
20260508134532 59 0 0.0 0.0 0.00 0.00 0.00 67 1018.5
20260508133031 58 0 0.0 2.0 0.00 0.00 0.00 71 1018.6
20260508131532 56 89 0.0 2.0 0.00 0.00 0.00 74 1018.6
20260508130031 55 0 0.0 2.0 0.00 0.00 0.00 78 1018.5
20260508124528 54 0 0.0 1.0 0.00 0.00 0.00 81 1018.4
20260508123032 53 0 0.0 1.0 0.00 0.00 0.00 85 1018.3
20260508121531 50 113 0.0 1.0 0.00 0.00 0.00 88 1018.1
20260508120038 48 0 0.0 1.0 0.00 0.00 0.00 91 1018.0
20260508114532 45 0 0.0 2.0 0.00 0.08 0.00 94 1017.7
20260508113035 43 70 1.0 1.0 0.00 0.08 0.00 94 1017.5
20260508111540 42 0 0.0 1.0 0.00 0.08 0.00 96 1017.3
20260508110029 41 0 0.0 1.0 0.00 0.08 0.00 96 1017.1
20260508104531 41 311 0.0 0.0 0.00 0.10 0.00 95 1016.9
20260508103036 41 0 0.0 0.0 0.00 0.10 0.00 95 1016.6
20260508101532 41 0 0.0 0.0 0.00 0.10 0.00 95 1016.5
20260508100031 41 297 1.0 1.0 0.00 0.10 0.00 95 1016.4
20260508094528 42 0 0.0 1.0 0.00 0.10 0.00 95 1016.3
20260508093028 42 0 0.0 1.0 0.00 0.10 0.00 95 1016.3
20260508091537 42 105 0.0 0.0 0.00 0.10 0.00 95 1016.1
20260508090033 42 0 0.0 1.0 0.00 0.10 0.00 95 1016.2
20260508084527 43 0 0.0 0.0 0.00 0.13 0.00 95 1016.0
20260508083029 43 0 0.0 1.0 0.00 0.13 0.00 95 1015.7
20260508081542 43 0 0.0 0.0 0.00 0.13 0.00 95 1015.5
20260508080028 44 0 0.0 0.0 0.00 0.13 0.00 95 1015.5
20260508074531 44 0 0.0 0.0 0.00 0.13 0.00 94 1015.6
20260508073030 44 0 0.0 0.0 0.00 0.13 0.00 95 1015.3
20260508071530 45 0 0.0 0.0 0.00 0.13 0.00 94 1015.0
20260508070030 46 0 0.0 1.0 0.00 0.13 0.00 94 1015.0
20260508064530 46 0 0.0 0.0 0.00 0.13 0.00 93 1014.8
20260508063029 47 0 0.0 1.0 0.00 0.13 0.00 92 1014.8
20260508061530 47 0 0.0 1.0 0.00 0.13 0.00 91 1014.6
20260508060031 48 109 0.0 1.0 0.00 0.13 0.00 89 1014.6
20260508054531 49 0 0.0 4.0 0.00 0.19 0.00 89 1014.5
20260508053031 50 70 0.0 3.0 0.00 0.19 0.00 87 1014.4
20260508051531 52 72 1.0 3.0 0.00 0.19 0.00 82 1014.3
20260508050031 53 191 0.0 2.0 0.00 0.19 0.00 79 1014.3
20260508044531 53 0 0.0 1.0 0.00 0.26 0.00 78 1014.3
20260508043031 53 73 0.0 4.0 0.00 0.26 0.00 80 1014.1
20260508041534 54 222 2.0 5.0 0.00 0.26 0.00 76 1014.1
20260508040030 55 283 1.0 5.0 0.00 0.26 0.00 75 1014.2
20260508034533 56 0 3.0 9.0 0.00 0.27 0.26 72 1014.4
20260508033030 56 256 4.0 9.0 0.00 0.27 0.26 71 1014.4
20260508031530 55 212 1.0 6.0 0.00 0.27 0.26 73 1014.4
20260508030030 55 0 0.0 3.0 0.00 0.27 0.26 75 1014.5
20260508024528 56 63 1.0 9.0 0.00 0.29 0.26 72 1014.2
20260508023029 55 209 4.0 7.0 0.00 0.29 0.26 75 1014.0
20260508021530 54 0 1.0 3.0 0.00 0.29 0.26 75 1013.7
20260508020036 54 231 2.0 6.0 0.00 0.29 0.26 78 1013.8
20260508014530 55 230 5.0 12.0 0.00 0.29 0.26 75 1013.5
20260508013027 56 186 5.0 11.0 0.00 0.29 0.26 72 1013.3
20260508011532 57 193 5.0 8.0 0.00 0.29 0.26 68 1012.9
20260508010033 58 220 6.0 13.0 0.00 0.29 0.26 66 1012.8
20260508004528 58 150 5.0 10.0 0.00 0.39 0.26 65 1012.6
20260508003027 59 159 7.0 11.0 0.00 0.39 0.26 65 1012.4
20260508001529 59 238 5.0 13.0 0.00 0.39 0.26 66 1012.2
20260508000029 60 211 6.0 10.0 0.00 0.39 0.26 68 1012.1
20260507234538 61 116 1.0 12.0 0.00 0.48 0.26 65 1012.1
20260507233030 62 124 6.0 10.0 0.00 0.48 0.26 64 1012.0
20260507231528 63 281 2.0 6.0 0.00 0.48 0.26 64 1011.7
20260507230032 64 231 4.0 11.0 0.00 0.48 0.26 64 1011.6
20260507224533 67 176 2.0 9.0 0.00 0.50 0.26 62 1011.1
20260507223034 69 163 1.0 12.0 0.00 0.50 0.26 60 1010.7
20260507221530 69 301 2.0 10.0 0.00 0.50 0.26 60 1010.4
20260507220031 70 155 2.0 16.0 0.00 0.50 0.26 58 1010.1
20260507214530 71 84 2.0 14.0 0.00 0.51 0.26 60 1009.8
20260507213038 71 67 5.0 15.0 0.00 0.51 0.26 58 1009.5
20260507211534 71 210 4.0 12.0 0.00 0.51 0.26 58 1009.5
20260507210033 72 169 1.0 14.0 0.00 0.51 0.26 59 1009.2